#timestamp,LO_Frequency,Hit,StdDev 
1553410815.3,286047001.7,N
1553410835.2,286047002.0,N
1553410855.0,286047002.6,N
1553410855.9,286047002.6,N
1553410875.8,286047003.9,N
1553410895.6,286047004.3,N
1553410915.4,286047002.1,N
1553410935.3,286047002.5,N
1553410955.1,286047002.3,N
1553410975.8,286047000.0,N
1553410995.7,286046999.7,N
1553411015.5,286046999.6,N
1553411035.4,286046998.7,N
1553411055.2,286046996.5,N
1553411075.0,286046995.2,N
1553411075.9,286046995.2,N
1553411095.8,286046993.5,N
1553411115.6,286046996.3,N
1553411135.4,286046994.6,N
1553411155.3,286046993.3,N
1553411175.1,286046996.1,N
1553411195.9,286046999.2,N
1553411215.7,286046999.5,N
1553411235.5,286046997.9,N
1553411255.4,286046997.6,N
1553411275.2,286046995.5,N
1553411295.0,286046993.9,N
1553411296.0,286046993.9,N
1553411315.8,286046994.7,N
1553411335.6,286046993.9,N
1553411355.5,286046994.0,N
1553411375.3,286046994.3,N
1553411395.1,286046994.6,N
1553411415.9,286046994.7,N
1553411435.7,286046992.0,N
1553411455.6,286046994.8,N
1553411475.4,286046994.3,N
1553411495.2,286046995.7,N
1553411515.1,286046998.0,N
1553411516.0,286046998.0,N
1553411535.8,286046995.7,N
1553411555.6,286046995.9,N
1553411575.5,286046997.9,N
1553411595.3,286046996.9,N
1553411615.2,286046996.9,N
1553411635.9,286046999.3,N
1553411655.7,286047002.4,N
1553411675.6,286047001.5,N
1553411695.4,286047001.4,N
1553411715.2,286047002.6,N
1553411735.1,286047002.7,N
1553411736.0,286047002.7,N
1553411755.8,286047000.2,N
1553411775.7,286047000.0,N
1553411795.5,286047000.9,N
1553411815.3,286046998.3,N
1553411835.2,286046996.6,N
1553411855.9,286046999.2,N
1553411875.7,286046998.9,N
1553411895.6,286047000.6,N
1553411915.4,286047000.3,N
1553411935.2,286046999.7,N
1553411955.1,286047000.5,N
1553411956.0,286047000.5,N
1553411975.8,286046999.4,N
1553411995.7,286046996.9,N
1553412015.5,286046997.1,N
1553412035.3,286046997.2,N
1553412055.2,286046999.5,N
1553412075.0,286046997.9,N
1553412075.9,286046997.9,N
1553412095.8,286046997.5,N
1553412115.6,286046993.9,Y
1553412135.4,286046993.4,P
1553412155.3,286046995.4,N
1553412175.1,286046996.7,N
1553412195.8,286046996.5,N
1553412215.7,286046997.6,N
1553412235.5,286046994.9,N
1553412255.4,286047000.1,N
1553412275.2,286047004.3,N
1553412295.0,286047004.2,N
1553412295.9,286047004.2,N
1553412315.8,286047004.3,N
1553412335.6,286047004.4,N
1553412355.4,286047001.6,N
1553412375.3,286047002.7,N
1553412395.1,286047000.6,N
1553412415.9,286046998.3,N
1553412435.7,286046999.0,N
1553412455.5,286046999.0,N
1553412475.4,286046998.7,N
1553412495.2,286047001.2,N
1553412515.0,286047002.4,N
1553412515.9,286047002.4,N
1553412535.8,286047000.3,N
1553412555.6,286047002.5,N
1553412575.5,286047001.9,N
1553412595.3,286047011.9,Y
1553412615.1,286047006.3,P
1553412635.9,286047010.3,P
1553412655.7,286047008.5,N
1553412675.5,286047009.2,N
1553412695.4,286047009.6,N
1553412715.2,286047008.1,N
1553412735.1,286047006.1,N
1553412736.0,286047006.1,N
1553412755.8,286047007.0,N
1553412775.6,286047008.9,Y
1553412795.5,286046999.8,P
1553412815.3,286047000.4,N
1553412835.1,286046999.3,N
1553412855.9,286047001.0,N
1553412875.7,286047000.4,N
1553412895.6,286046999.3,N
1553412915.4,286046997.4,N
1553412935.2,286046998.0,N
1553412955.1,286046995.9,N
1553412956.0,286046995.9,N
1553412975.8,286046994.5,N
1553412995.6,286046994.3,N
1553413015.5,286046994.5,N
1553413035.3,286046992.5,N
1553413055.2,286046991.8,N
1553413075.9,286046991.7,N
1553413095.7,286046995.8,N
1553413115.6,286046993.7,N
1553413135.4,286046996.3,N
1553413155.2,286046996.2,N
1553413175.1,286046996.0,N
1553413176.0,286046996.0,N
1553413195.8,286046995.8,N
1553413215.7,286046997.9,N
1553413235.5,286046995.8,N
1553413255.3,286046995.9,N
1553413275.2,286046994.5,N
1553413295.0,286046992.2,N
1553413295.9,286046992.2,N
1553413315.8,286046991.4,N
1553413335.6,286046991.4,Y
1553413355.4,286046995.9,P
1553413375.3,286046993.9,P
1553413395.1,286046994.8,P
1553413415.8,286046992.4,Y
1553413435.7,286046997.7,P
1553413455.5,286046995.6,P
1553413475.4,286046996.0,P
1553413495.2,286046993.7,Y
1553413515.0,286046999.0,P
1553413515.9,286046999.0,N
1553413535.8,286046996.6,N
1553413555.6,286046998.3,N
1553413575.5,286046999.6,N
1553413595.3,286046997.1,N
1553413615.1,286046997.2,N
1553413635.9,286046997.0,N
1553413655.7,286046995.1,Y
1553413675.6,286046997.1,P
1553413695.4,286046995.7,P
1553413715.2,286046996.4,P
1553413735.1,286046994.1,Y
1553413736.0,286046994.1,P
1553413755.8,286046995.6,P
1553413775.7,286046995.0,P
1553413795.5,286046997.4,N
1553413815.3,286046997.0,N
1553413835.2,286046998.8,N
1553413855.0,286046997.9,N
1553413855.9,286046997.9,N
1553413875.7,286046997.3,N
1553413895.6,286046999.0,N
1553413915.4,286047000.5,N
1553413935.3,286047011.9,Y
1553413955.1,286047003.6,P
1553413975.8,286047005.6,N
1553413995.7,286047007.4,N
1553414015.5,286047007.6,N
1553414035.3,286047004.9,N
1553414055.2,286047005.7,N
1553414075.0,286047005.1,N
1553414075.9,286047005.1,N
1553414095.8,286047007.3,N
1553414115.6,286047007.2,N
1553414135.4,286047004.8,N
1553414155.3,286047007.2,N
1553414175.1,286047009.2,Y
1553414195.9,286047004.4,P
1553414215.7,286047004.4,P
1553414235.5,286047004.0,P
1553414255.4,286047003.7,Y
1553414275.2,286046997.2,P
1553414295.1,286046997.9,N
1553414296.0,286046997.9,N
1553414315.8,286046998.7,N
1553414335.6,286046998.3,N
1553414355.5,286046998.3,N
1553414375.3,286046998.4,N
1553414395.1,286046998.5,N
